Change the Weather History Date:

Thursday, April 4, 2013

  Actual Average Record
Temperature  
Mean Temperature 38 °F -  
Max Temperature 51 °F 46 °F 77 °F (1997)
Min Temperature 24 °F 26 °F -12 °F (1954)
Degree Days  
Heating Degree Days 28    
Moisture  
Dew Point 19 °F    
Average Humidity 55    
Maximum Humidity 92    
Minimum Humidity 28    
Precipitation  
Precipitation 0.00 in - - ()
Sea Level Pressure  
Sea Level Pressure 30.03 in    
Wind  
Wind Speed 10 mph (SW)    
Max Wind Speed 22 mph    
Max Gust Speed 30 mph    
Visibility 8 miles    
Events Fog , Rain    
Averages and records for this station are not official NWS values.
T = Trace of Precipitation, MM = Missing Value Source: NWS Daily Summary

Daily Weather History Graph

Daily Weather History Graph

Search for Another Location

Airport or City:

Trip Planner

Search our weather history database for the weather conditions in past years. The results will help you decide how hot, cold, wet, or windy it might be!

Date:

Astronomy

Apr. 04, 2013 Rise Set
Actual Time 7:16 AM EDT 8:12 PM EDT
Civil Twilight 6:47 AM EDT 8:42 PM EDT
Nautical Twilight 6:12 AM EDT 9:17 PM EDT
Astronomical Twilight 5:35 AM EDT 9:54 PM EDT
Moon 3:55 AM EDT (4/4) 2:18 PM EDT (4/4)
Length of Visible Light 13h 54m
Length of Day
12h 55m
Waning Crescent, 34% of the Moon is Illuminated
Apr 4
Waning Crescent
Apr 10
New
Apr 18
First Quarter
Apr 25
Full
May 2
Last Quarter

Hourly Weather History & Observations

Time (EDT) Temp. Windchill Dew Point Humidity Pressure Visibility Wind Dir Wind Speed Gust Speed Precip Events Conditions
12:15 AM 25.9 °F 18.2 °F 16.0 °F 66% 30.24 in 10.0 mi SSW 6.9 mph - N/A   Clear
12:34 AM 26.4 °F 18.9 °F 15.4 °F 63% 30.23 in 10.0 mi SSW 6.9 mph - N/A   Clear
12:55 AM 26.4 °F 18.9 °F 14.9 °F 62% 30.22 in 10.0 mi SSW 6.9 mph - N/A   Clear
1:15 AM 25.3 °F 18.5 °F 14.4 °F 63% 30.21 in 10.0 mi SSW 5.8 mph - N/A   Clear
1:34 AM 25.2 °F 17.3 °F 14.9 °F 65% 30.21 in 10.0 mi SSW 6.9 mph - N/A   Clear
2:15 AM 25.2 °F 17.3 °F 12.7 °F 59% 30.20 in 10.0 mi SSW 6.9 mph - N/A   Clear
2:35 AM 26.4 °F 19.8 °F 10.9 °F 52% 30.19 in 10.0 mi SSW 5.8 mph - N/A   Clear
2:55 AM 26.4 °F 18.9 °F 10.4 °F 51% 30.18 in 10.0 mi SSW 6.9 mph - N/A   Clear
3:15 AM 26.4 °F 18.0 °F 9.3 °F 49% 30.17 in 10.0 mi SW 8.1 mph - N/A   Clear
3:35 AM 26.4 °F 18.0 °F 7.5 °F 45% 30.16 in 10.0 mi SSW 8.1 mph - N/A   Clear
3:55 AM 26.4 °F 16.6 °F 7.0 °F 44% 30.15 in 10.0 mi SW 10.4 mph - N/A   Clear
4:15 AM 26.4 °F 16.6 °F 6.3 °F 42% 30.14 in 10.0 mi SW 10.4 mph - N/A   Clear
4:35 AM 26.4 °F 16.6 °F 6.4 °F 43% 30.13 in 10.0 mi SW 10.4 mph - N/A   Clear
4:55 AM 25.2 °F 16.5 °F 6.8 °F 46% 30.13 in 10.0 mi SW 8.1 mph - N/A   Clear
5:15 AM 25.9 °F 18.2 °F 7.3 °F 46% 30.13 in 10.0 mi SSW 6.9 mph - N/A   Clear
5:35 AM 26.2 °F 17.8 °F 6.6 °F 43% 30.13 in 10.0 mi SSW 8.1 mph - N/A   Clear
5:55 AM 25.2 °F 16.5 °F 6.3 °F 45% 30.12 in 10.0 mi SSW 8.1 mph - N/A   Clear
6:15 AM 25.3 °F 17.6 °F 5.9 °F 44% 30.12 in 10.0 mi SSW 6.9 mph - N/A   Clear
6:34 AM 26.4 °F 17.3 °F 5.2 °F 40% 30.11 in 10.0 mi SSW 9.2 mph - N/A   Clear
6:55 AM 26.1 °F 19.4 °F 5.7 °F 42% 30.11 in 10.0 mi SSW 5.8 mph - N/A   Clear
7:15 AM 24.6 °F 16.7 °F 5.7 °F 45% 30.11 in 10.0 mi SW 6.9 mph - N/A   Clear
7:34 AM 28.8 °F 19.5 °F 5.0 °F 36% 30.10 in 10.0 mi SSW 10.4 mph - N/A   Clear
7:55 AM 31.5 °F 21.8 °F 7.5 °F 37% 30.10 in 10.0 mi SW 12.7 mph - N/A   Clear
8:15 AM 31.5 °F 22.3 °F 10.4 °F 42% 30.10 in 10.0 mi SW 11.5 mph - N/A   Clear
8:34 AM 33.1 °F 23.9 °F 13.6 °F 45% 30.09 in 10.0 mi SW 12.7 mph - N/A   Clear
8:55 AM 36.1 °F 27.3 °F 16.7 °F 45% 30.09 in 10.0 mi SW 13.8 mph - N/A   Clear
9:15 AM 36.1 °F 26.2 °F 16.7 °F 45% 30.08 in 10.0 mi SW 17.3 mph 20.7 mph N/A   Clear
9:35 AM 38.7 °F 28.8 °F 19.0 °F 45% 30.06 in 10.0 mi SSW 19.6 mph - N/A   Clear
9:55 AM 38.7 °F 29.1 °F 18.3 °F 44% 30.05 in 10.0 mi SW 18.4 mph - N/A   Clear
10:15 AM 41.2 °F 32.4 °F 19.9 °F 43% 30.04 in 10.0 mi SW 18.4 mph 27.6 mph N/A   Clear
10:35 AM 41.2 °F 31.6 °F 19.4 °F 42% 30.04 in 10.0 mi SW 21.9 mph 27.6 mph N/A   Clear
10:55 AM 41.2 °F 32.4 °F 19.8 °F 42% 30.03 in 10.0 mi SW 18.4 mph 24.2 mph N/A   Clear
11:15 AM 43.2 °F 35.0 °F 19.9 °F 40% 30.02 in 10.0 mi SW 18.4 mph 25.3 mph N/A   Clear
11:35 AM 45.0 °F 37.4 °F 19.9 °F 37% 30.01 in 10.0 mi SW 18.4 mph 25.3 mph N/A   Clear
11:55 AM 46.4 °F 38.5 °F 18.7 °F 33% 30.00 in 10.0 mi SW 21.9 mph 27.6 mph N/A   Clear
12:35 PM 49.1 °F - 19.9 °F 32% 29.99 in 10.0 mi SW 18.4 mph - N/A   Clear
12:55 PM 51.4 °F - 19.9 °F 29% 29.98 in 10.0 mi SW 20.7 mph 29.9 mph N/A   Clear
1:15 PM 51.4 °F - 20.3 °F 29% 29.97 in 10.0 mi SW 18.4 mph - N/A   Clear
1:35 PM 51.4 °F - 19.9 °F 29% 29.96 in 10.0 mi SW 17.3 mph 27.6 mph N/A   Clear
1:55 PM 51.4 °F - 19.6 °F 29% 29.95 in 10.0 mi SW 17.3 mph 26.5 mph N/A   Clear
2:15 PM 51.4 °F - 19.4 °F 28% 29.94 in 10.0 mi SW 17.3 mph 26.5 mph N/A   Clear
2:35 PM 51.4 °F - 19.4 °F 28% 29.93 in 10.0 mi SW 19.6 mph 26.5 mph N/A   Clear
3:15 PM 51.8 °F - 19.2 °F 28% 29.91 in 10.0 mi WSW 19.6 mph 28.8 mph N/A   Clear
3:35 PM 51.4 °F - 19.0 °F 28% 29.90 in 10.0 mi West 13.8 mph 23.0 mph N/A   Clear
3:55 PM 51.8 °F - 19.9 °F 29% 29.90 in 10.0 mi WSW 18.4 mph 23.0 mph N/A   Clear
4:14 PM 51.4 °F - 20.3 °F 29% 29.90 in 10.0 mi West 20.7 mph 26.5 mph N/A   Clear
4:35 PM 51.4 °F - 20.1 °F 29% 29.90 in 10.0 mi West 15.0 mph 24.2 mph N/A   Clear
4:55 PM 49.1 °F - 20.7 °F 33% 29.90 in 10.0 mi WSW 12.7 mph 21.9 mph N/A   Mostly Cloudy
5:14 PM 48.9 °F - 21.7 °F 34% 29.91 in 10.0 mi West 17.3 mph 27.6 mph N/A   Overcast
5:35 PM 44.6 °F 36.6 °F 23.5 °F 44% 29.91 in 10.0 mi West 19.6 mph 26.5 mph N/A   Overcast
5:55 PM 38.8 °F 30.4 °F 31.8 °F 76% 29.93 in 10.0 mi WNW 15.0 mph 19.6 mph N/A Rain Light Rain
6:14 PM 38.7 °F 30.9 °F 33.4 °F 81% 29.93 in 2.5 mi West 12.7 mph 18.4 mph N/A Rain Light Rain
6:35 PM 37.4 °F 32.1 °F 33.8 °F 87% 29.93 in 7.0 mi West 6.9 mph - N/A Rain Light Rain
6:55 PM 38.7 °F 35.2 °F 35.1 °F 87% 29.93 in 7.0 mi West 4.6 mph - N/A   Overcast
7:14 PM 38.7 °F 35.2 °F 35.1 °F 87% 29.93 in 7.0 mi West 4.6 mph - N/A   Overcast
7:35 PM 38.7 °F - 34.7 °F 86% 29.92 in 10.0 mi Calm Calm - N/A   Scattered Clouds
7:55 PM 37.4 °F - 33.8 °F 87% 29.92 in 10.0 mi Calm Calm - N/A   Clear
8:14 PM 36.1 °F - 32.9 °F 88% 29.92 in 5.0 mi Calm Calm - N/A   Clear
8:35 PM 35.2 °F 32.4 °F 32.5 °F 90% 29.92 in 1.8 mi SSW 3.5 mph - N/A   Mist
8:55 PM 33.3 °F - 31.1 °F 92% 29.92 in 0.8 mi Calm Calm - N/A   Mist
9:15 PM 31.6 °F - 29.3 °F 91% 29.93 in 0.8 mi Calm Calm - N/A   Mostly Cloudy
9:35 PM 31.5 °F - 29.1 °F 91% 29.93 in 0.2 mi Calm Calm - N/A Fog Light Freezing Fog
9:54 PM 31.5 °F - 29.3 °F 92% 29.93 in 0.2 mi Calm Calm - N/A Fog Light Freezing Fog
10:15 PM 31.5 °F - 29.3 °F 92% 29.94 in 0.2 mi Calm Calm - N/A Fog Light Freezing Fog
10:34 PM 31.5 °F - 29.3 °F 92% 29.94 in 0.2 mi Calm Calm - N/A Fog Light Freezing Fog
10:55 PM 31.5 °F - 29.1 °F 91% 29.94 in 0.2 mi Calm Calm - N/A Fog Light Freezing Fog
11:15 PM 31.5 °F - 29.3 °F 92% 29.94 in 0.5 mi Calm Calm - N/A Fog Light Freezing Fog
11:34 PM 33.4 °F 27.3 °F 31.5 °F 92% 29.95 in 4.0 mi NNW 6.9 mph - N/A   Overcast
11:55 PM 36.1 °F 29.9 °F 32.9 °F 88% 29.96 in 10.0 mi North 8.1 mph - N/A   Overcast